Weather History for Grants-Milan, NM

Change the Weather History Date:

Thursday, February 7, 2013

  Actual Average Record
Temperature  
Mean Temperature 34 °F -  
Max Temperature 52 °F 48 °F 67 °F (1963)
Min Temperature 15 °F 16 °F -9 °F (1964)
Degree Days  
Heating Degree Days 32    
Moisture  
Dew Point 16 °F    
Average Humidity 52    
Maximum Humidity 93    
Minimum Humidity 16    
Precipitation  
Precipitation 0.00 in - - ()
Sea Level Pressure  
Sea Level Pressure 30.14 in    
Wind  
Wind Speed 6 mph (NW)    
Max Wind Speed 10 mph    
Max Gust Speed -    
Visibility 10 miles    
Events      
Averages and records for this station are not official NWS values.
T = Trace of Precipitation, MM = Missing Value Source: NWS Daily Summary

Daily Weather History Graph

Daily Weather History Graph

Search for Another Location

Airport:

Trip Planner

Search our weather history database for the weather conditions in past years. The results will help you decide how hot, cold, wet, or windy it might be!

Date:

Astronomy

Feb. 07, 2013 Rise Set
Actual Time 7:05 AM MST 5:46 PM MST
Civil Twilight 6:39 AM MST 6:12 PM MST
Nautical Twilight 6:09 AM MST 6:42 PM MST
Astronomical Twilight 5:39 AM MST 7:12 PM MST
Moon 4:44 AM MST (2/7) 3:17 PM MST (2/7)
Length of Visible Light 11h 33m
Length of Day
10h 41m
Waning Crescent, 8% of the Moon is Illuminated
Feb 7
Waning Crescent
Feb 10
New
Feb 17
First Quarter
Feb 25
Full
Mar 4
Last Quarter

Hourly Weather History & Observations

Time (MST) Temp. Windchill Dew Point Humidity Pressure Visibility Wind Dir Wind Speed Gust Speed Precip Events Conditions
12:15 AM 29.3 °F 21.5 °F 21.9 °F 74% 30.09 in 10.0 mi NW 8.1 mph - N/A   Overcast
12:35 AM 30.0 °F 25.2 °F 21.9 °F 72% 30.09 in 10.0 mi NNW 4.6 mph - N/A   Overcast
12:55 AM 30.9 °F 24.3 °F 22.6 °F 71% 30.09 in 10.0 mi WNW 6.9 mph - N/A   Overcast
1:15 AM 30.0 °F 24.1 °F 22.3 °F 73% 30.09 in 10.0 mi WNW 5.8 mph - N/A   Mostly Cloudy
1:35 AM 29.3 °F 22.3 °F 22.8 °F 77% 30.09 in 10.0 mi West 6.9 mph - N/A   Scattered Clouds
1:55 AM 25.7 °F 19.0 °F 20.3 °F 80% 30.10 in 10.0 mi NW 5.8 mph - N/A   Clear
2:15 AM 23.7 °F 15.6 °F 19.6 °F 84% 30.10 in 10.0 mi NW 6.9 mph - N/A   Clear
2:35 AM 26.2 °F 17.1 °F 20.5 °F 79% 30.10 in 10.0 mi NW 9.2 mph - N/A   Clear
2:55 AM 23.0 °F 13.9 °F 19.0 °F 85% 30.10 in 10.0 mi WNW 8.1 mph - N/A   Clear
3:15 AM 23.2 °F 16.0 °F 19.2 °F 85% 30.10 in 10.0 mi NW 5.8 mph - N/A   Clear
3:35 AM 22.6 °F 13.4 °F 19.4 °F 87% 30.10 in 10.0 mi NW 8.1 mph - N/A   Clear
3:55 AM 22.8 °F 14.5 °F 19.0 °F 85% 30.11 in 10.0 mi NW 6.9 mph - N/A   Clear
4:15 AM 20.8 °F 11.2 °F 17.2 °F 86% 30.12 in 10.0 mi NNW 8.1 mph - N/A   Clear
4:35 AM 19.8 °F 11.9 °F 16.7 °F 88% 30.12 in 10.0 mi NW 5.8 mph - N/A   Clear
4:55 AM 20.1 °F 12.3 °F 17.4 °F 89% 30.12 in 10.0 mi WNW 5.8 mph - N/A   Clear
5:15 AM 19.8 °F 9.9 °F 17.4 °F 91% 30.12 in 10.0 mi NW 8.1 mph - N/A   Clear
5:35 AM 20.8 °F 11.2 °F 18.9 °F 92% 30.13 in 10.0 mi WNW 8.1 mph - N/A   Clear
5:55 AM 21.4 °F 13.8 °F 18.7 °F 89% 30.14 in 10.0 mi NNW 5.8 mph - N/A   Clear
6:15 AM 18.3 °F 10.2 °F 16.0 °F 91% 30.15 in 10.0 mi NNW 5.8 mph - N/A   Clear
6:35 AM 18.7 °F - 17.1 °F 93% 30.16 in 10.0 mi Calm Calm - N/A   Clear
6:55 AM 15.6 °F - 13.5 °F 91% 30.16 in 10.0 mi Calm Calm - N/A   Clear
7:15 AM 17.1 °F - 14.7 °F 91% 30.17 in 10.0 mi Calm Calm - N/A   Clear
7:35 AM 18.1 °F 10.0 °F 15.6 °F 90% 30.18 in 10.0 mi NNW 5.8 mph - N/A   Clear
7:55 AM 21.2 °F 14.9 °F 17.8 °F 87% 30.18 in 10.0 mi NW 4.6 mph - N/A   Clear
8:15 AM 24.3 °F 18.4 °F 19.6 °F 82% 30.20 in 10.0 mi NW 4.6 mph - N/A   Clear
8:35 AM 27.3 °F 19.9 °F 20.8 °F 77% 30.20 in 10.0 mi NW 6.9 mph - N/A   Clear
8:55 AM 31.1 °F 25.4 °F 23.4 °F 73% 30.20 in 10.0 mi NNW 5.8 mph - N/A   Clear
9:15 AM 33.4 °F 29.1 °F 24.4 °F 70% 30.21 in 10.0 mi NNW 4.6 mph - N/A   Clear
9:35 AM 36.0 °F 33.3 °F 25.7 °F 66% 30.21 in 10.0 mi NNW 3.5 mph - N/A   Clear
9:55 AM 38.8 °F 36.5 °F 26.4 °F 61% 30.21 in 10.0 mi WNW 3.5 mph - N/A   Clear
10:15 AM 41.7 °F - 26.2 °F 54% 30.21 in 10.0 mi Calm Calm - N/A   Clear
10:35 AM 43.0 °F 38.8 °F 24.6 °F 48% 30.21 in 10.0 mi North 6.9 mph - N/A   Clear
10:55 AM 45.1 °F 40.8 °F 22.5 °F 41% 30.20 in 10.0 mi North 8.1 mph - N/A   Clear
11:15 AM 47.3 °F - 19.8 °F 34% 30.20 in 10.0 mi NNE 6.9 mph - N/A   Clear
11:35 AM 47.5 °F - 17.6 °F 30% 30.19 in 10.0 mi NE 6.9 mph - N/A   Clear
11:55 AM 46.9 °F - 18.5 °F 32% 30.18 in 10.0 mi NNW 5.8 mph - N/A   Clear
12:15 PM 48.4 °F - 16.9 °F 29% 30.17 in 10.0 mi Calm Calm - N/A   Clear
12:35 PM 48.9 °F - 15.6 °F 27% 30.16 in 10.0 mi NW 8.1 mph - N/A   Clear
12:55 PM 50.5 °F - 15.8 °F 25% 30.15 in 10.0 mi NW 5.8 mph - N/A   Clear
1:15 PM 50.7 °F - 13.1 °F 22% 30.15 in 10.0 mi NNE 3.5 mph - N/A   Clear
1:35 PM 51.3 °F - 14.4 °F 23% 30.14 in 10.0 mi NNW 8.1 mph - N/A   Clear
1:55 PM 51.4 °F - 13.1 °F 22% 30.14 in 10.0 mi Calm Calm - N/A   Clear
2:15 PM 52.3 °F - 13.3 °F 21% 30.12 in 10.0 mi Calm Calm - N/A   Clear
2:35 PM 52.9 °F - 13.8 °F 21% 30.12 in 10.0 mi SE 6.9 mph - N/A   Clear
2:55 PM 52.0 °F - 14.2 °F 22% 30.12 in 10.0 mi NNE 3.5 mph - N/A   Clear
3:15 PM 52.5 °F - 14.4 °F 22% 30.12 in 10.0 mi SW 5.8 mph - N/A   Clear
3:35 PM 52.2 °F - 16.2 °F 24% 30.12 in 10.0 mi Calm Calm - N/A   Clear
3:55 PM 52.3 °F - 17.6 °F 25% 30.11 in 10.0 mi Calm Calm - N/A   Clear
4:15 PM 52.7 °F - 16.2 °F 24% 30.11 in 10.0 mi SE 3.5 mph - N/A   Clear
4:35 PM 52.3 °F - 13.3 °F 21% 30.12 in 10.0 mi SSE 8.1 mph - N/A   Clear
4:55 PM 52.0 °F - 11.1 °F 20% 30.11 in 10.0 mi SE 6.9 mph - N/A   Clear
5:15 PM 50.7 °F - 5.9 °F 16% 30.12 in 10.0 mi SE 6.9 mph - N/A   Clear
5:35 PM 47.1 °F - 6.8 °F 19% 30.12 in 10.0 mi SE 5.8 mph - N/A   Clear
5:55 PM 40.1 °F 36.1 °F 5.9 °F 24% 30.12 in 10.0 mi SSE 5.8 mph - N/A   Clear
6:15 PM 37.8 °F 34.2 °F 5.9 °F 27% 30.12 in 10.0 mi SSW 4.6 mph - N/A   Clear
6:35 PM 37.0 °F 32.4 °F 5.7 °F 27% 30.13 in 10.0 mi South 5.8 mph - N/A   Clear
6:55 PM 36.3 °F 32.5 °F 6.4 °F 29% 30.13 in 10.0 mi SSE 4.6 mph - N/A   Clear
7:15 PM 36.7 °F - 7.7 °F 30% 30.13 in 10.0 mi Calm Calm - N/A   Clear
7:35 PM 32.7 °F 29.6 °F 7.3 °F 35% 30.13 in 10.0 mi SSE 3.5 mph - N/A   Clear
7:55 PM 32.9 °F 28.5 °F 9.1 °F 37% 30.13 in 10.0 mi South 4.6 mph - N/A   Clear
8:15 PM 33.4 °F - 10.4 °F 38% 30.13 in 10.0 mi Calm Calm - N/A   Clear
8:35 PM 30.6 °F - 7.2 °F 37% 30.13 in 10.0 mi Calm Calm - N/A   Clear
8:55 PM 29.7 °F - 10.6 °F 45% 30.13 in 10.0 mi Calm Calm - N/A   Clear
9:15 PM 38.3 °F 31.4 °F 12.2 °F 34% 30.13 in 10.0 mi SSE 10.4 mph - N/A   Clear
9:35 PM 38.5 °F 32.7 °F 12.2 °F 34% 30.14 in 10.0 mi SSE 8.1 mph - N/A   Clear
9:55 PM 37.9 °F 30.9 °F 12.0 °F 35% 30.13 in 10.0 mi South 10.4 mph - N/A   Clear
10:15 PM 37.6 °F 31.6 °F 11.7 °F 34% 30.13 in 10.0 mi South 8.1 mph - N/A   Clear
10:35 PM 37.6 °F 31.6 °F 11.3 °F 34% 30.13 in 10.0 mi South 8.1 mph - N/A   Clear
10:55 PM 37.6 °F 30.5 °F 11.3 °F 34% 30.13 in 10.0 mi South 10.4 mph - N/A   Scattered Clouds
11:15 PM 37.4 °F 30.8 °F 11.1 °F 34% 30.12 in 10.0 mi SSE 9.2 mph - N/A   Mostly Cloudy
11:35 PM 37.6 °F 31.6 °F 11.1 °F 34% 30.12 in 10.0 mi SSE 8.1 mph - N/A   Mostly Cloudy
11:55 PM 38.3 °F 31.9 °F 11.3 °F 33% 30.12 in 10.0 mi SSE 9.2 mph - N/A   Clear